Location: Chomutov
(50.4500°N, 13.4333°E)
Time: 18:58:04
(UTC+02:00)

FO-29 - Pass Details

Date: 02 October 2021
Orbit: 800 x 1321 km, 98.6° (Epoch: 23 October)

Event Time Altitude Azimuth Distance (km) Brightness Sun altitude
Exits shadow 23:32:31 17° 253° (WSW) 2,820 11.9 -40.3°
Maximum altitude 23:35:04 20° 277° (W) 2,662 12.0 -40.5°
Drops below altitude 10° 23:40:32 10° 321° (NW) 3,344 12.9 -40.9°
Sets 23:44:13 0° 338° (NNW) 4,282 13.7 -41.1°
